Location: Le Hiès Ruisseau
(43.3000°N, 0.4500°W)
Time: 01:39:24
(UTC+00:00)

Cosmos 2360 Rocket - Pass Details

Date: 28 January 2023
Orbit: 832 x 846 km, 71.0° (Epoch: 27 March)

Event Time Altitude Azimuth Distance (km) Brightness Sun altitude
Rises 19:35:22 0° 192° (SSW) 3,367 5.5 -26.8°
Reaches altitude 10° 19:37:49 10° 189° (S) 2,439 4.7 -27.3°
Enters shadow 19:40:48 32° 178° (S) 1,395 3.2 -27.8°
